Time,TemperatureF,DewpointF,PressureIn,WindDirection,WindDirectionDegrees,WindSpeedMPH,WindSpeedGustMPH,Humidity,HourlyPrecipIn,Conditions,Clouds,dailyrainin,SolarRadiationWatts/m^2,SoftwareType,DateUTC
2013-04-08 00:03:00,53.0,33.0,-100.00,NNW,338,5.0,12.0,47,0.00,,,0.00,0.000000,,2013-04-08 10:03:00,
2013-04-08 00:13:00,53.0,33.0,-100.00,NNW,338,5.0,12.0,47,0.00,,,0.00,0.000000,,2013-04-08 10:13:00,
2013-04-08 00:23:00,53.0,33.0,-100.00,NNW,338,5.0,12.0,47,0.00,,,0.00,0.000000,,2013-04-08 10:23:00,
2013-04-08 00:32:00,53.0,33.0,-100.00,NNW,338,5.0,12.0,47,0.00,,,0.00,0.000000,,2013-04-08 10:32:00,
2013-04-08 01:02:00,53.0,33.0,-100.00,NNW,339,7.0,13.0,47,0.00,,,0.00,0.000000,,2013-04-08 11:02:00,
2013-04-08 01:12:00,53.0,33.0,-100.00,NNW,339,7.0,13.0,47,0.00,,,0.00,0.000000,,2013-04-08 11:12:00,
2013-04-08 01:22:00,53.0,33.0,-100.00,NNW,339,7.0,13.0,47,0.00,,,0.00,0.000000,,2013-04-08 11:22:00,
2013-04-08 01:32:00,53.0,33.0,-100.00,NNW,339,7.0,13.0,47,0.00,,,0.00,0.000000,,2013-04-08 11:32:00,
2013-04-08 02:02:00,55.0,33.0,-100.00,NNW,334,9.0,15.0,44,0.00,,,0.00,0.000000,,2013-04-08 12:02:00,
2013-04-08 02:12:00,55.0,33.0,-100.00,NNW,334,9.0,15.0,44,0.00,,,0.00,0.000000,,2013-04-08 12:12:00,
2013-04-08 02:22:00,55.0,33.0,-100.00,NNW,334,9.0,15.0,44,0.00,,,0.00,0.000000,,2013-04-08 12:22:00,
2013-04-08 02:32:00,55.0,33.0,-100.00,NNW,334,9.0,15.0,44,0.00,,,0.00,0.000000,,2013-04-08 12:32:00,
2013-04-08 03:02:00,56.0,30.0,-100.00,North,354,8.0,20.0,37,0.00,,,0.00,0.000000,,2013-04-08 13:02:00,
2013-04-08 03:12:00,56.0,30.0,-100.00,North,354,8.0,20.0,37,0.00,,,0.00,0.000000,,2013-04-08 13:12:00,
2013-04-08 03:22:00,56.0,30.0,-100.00,North,354,8.0,20.0,37,0.00,,,0.00,0.000000,,2013-04-08 13:22:00,
2013-04-08 03:32:00,56.0,30.0,-100.00,North,354,8.0,20.0,37,0.00,,,0.00,0.000000,,2013-04-08 13:32:00,
2013-04-08 04:02:00,53.0,27.0,-100.00,North,8,4.0,18.0,37,0.00,,,0.00,0.000000,,2013-04-08 14:02:00,
2013-04-08 04:12:00,53.0,27.0,-100.00,North,8,4.0,18.0,37,0.00,,,0.00,0.000000,,2013-04-08 14:12:00,
2013-04-08 04:22:00,53.0,27.0,-100.00,North,8,4.0,18.0,37,0.00,,,0.00,0.000000,,2013-04-08 14:22:00,
2013-04-08 04:32:00,53.0,27.0,-100.00,North,8,4.0,18.0,37,0.00,,,0.00,0.000000,,2013-04-08 14:32:00,
2013-04-08 05:02:00,46.0,42.0,-100.00,NNW,330,3.0,15.0,87,0.00,,,0.00,0.000000,,2013-04-08 15:02:00,
2013-04-08 05:12:00,46.0,42.0,-100.00,NNW,330,3.0,15.0,87,0.00,,,0.00,0.000000,,2013-04-08 15:12:00,
2013-04-08 05:22:00,46.0,42.0,-100.00,NNW,330,3.0,15.0,87,0.00,,,0.00,0.000000,,2013-04-08 15:22:00,
2013-04-08 05:33:00,46.0,42.0,-100.00,NNW,330,3.0,15.0,87,0.00,,,0.00,0.000000,,2013-04-08 15:33:00,
2013-04-08 06:03:00,48.0,45.0,-100.00,North,4,7.0,17.0,90,0.00,,,0.00,0.000000,,2013-04-08 16:03:00,
2013-04-08 06:12:00,48.0,45.0,-100.00,North,4,7.0,17.0,90,0.00,,,0.00,0.000000,,2013-04-08 16:12:00,
2013-04-08 06:22:00,48.0,45.0,-100.00,North,4,7.0,17.0,90,0.00,,,0.00,0.000000,,2013-04-08 16:22:00,
2013-04-08 06:32:00,48.0,45.0,-100.00,North,4,7.0,17.0,90,0.00,,,0.00,0.000000,,2013-04-08 16:32:00,
2013-04-08 07:02:00,49.0,47.0,-100.00,North,353,5.0,14.0,92,0.00,,,0.00,7.000000,,2013-04-08 17:02:00,
2013-04-08 07:12:00,49.0,47.0,-100.00,North,353,5.0,14.0,92,0.00,,,0.00,7.000000,,2013-04-08 17:12:00,
2013-04-08 07:22:00,49.0,47.0,-100.00,North,353,5.0,14.0,92,0.00,,,0.00,7.000000,,2013-04-08 17:22:00,
2013-04-08 07:32:00,49.0,47.0,-100.00,North,353,5.0,14.0,92,0.00,,,0.00,7.000000,,2013-04-08 17:32:00,
2013-04-08 08:02:00,54.0,47.0,-100.00,NNW,334,5.0,12.0,76,0.00,,,0.00,111.000000,,2013-04-08 18:02:00,
2013-04-08 08:12:00,54.0,47.0,-100.00,NNW,334,5.0,12.0,76,0.00,,,0.00,111.000000,,2013-04-08 18:12:00,
2013-04-08 08:22:00,54.0,47.0,-100.00,NNW,334,5.0,12.0,76,0.00,,,0.00,111.000000,,2013-04-08 18:22:00,
2013-04-08 08:32:00,54.0,47.0,-100.00,NNW,334,5.0,12.0,76,0.00,,,0.00,111.000000,,2013-04-08 18:32:00,
2013-04-08 08:52:00,63.0,50.0,-100.00,NNE,17,6.0,11.0,62,0.00,,,0.00,347.000000,,2013-04-08 18:52:00,
2013-04-08 09:02:00,63.0,50.0,-100.00,NNE,17,6.0,11.0,62,0.00,,,0.00,347.000000,,2013-04-08 19:02:00,
2013-04-08 09:12:00,63.0,50.0,-100.00,NNE,17,6.0,11.0,62,0.00,,,0.00,347.000000,,2013-04-08 19:12:00,
2013-04-08 09:22:00,63.0,50.0,-100.00,NNE,17,6.0,11.0,62,0.00,,,0.00,347.000000,,2013-04-08 19:22:00,
2013-04-08 09:33:00,63.0,50.0,-100.00,NNE,17,6.0,11.0,62,0.00,,,0.00,347.000000,,2013-04-08 19:33:00,
2013-04-08 09:52:00,66.0,51.0,-100.00,NNE,30,6.0,14.0,58,0.00,,,0.00,866.000000,,2013-04-08 19:52:00,
2013-04-08 10:02:00,66.0,51.0,-100.00,NNE,30,6.0,14.0,58,0.00,,,0.00,866.000000,,2013-04-08 20:02:00,
2013-04-08 10:12:00,66.0,51.0,-100.00,NNE,30,6.0,14.0,58,0.00,,,0.00,866.000000,,2013-04-08 20:12:00,
2013-04-08 10:22:00,66.0,51.0,-100.00,NNE,30,6.0,14.0,58,0.00,,,0.00,866.000000,,2013-04-08 20:22:00,
2013-04-08 10:32:00,66.0,51.0,-100.00,NNE,30,6.0,14.0,58,0.00,,,0.00,866.000000,,2013-04-08 20:32:00,
2013-04-08 10:52:00,67.0,50.0,-100.00,ENE,58,5.0,14.0,55,0.00,,,-99.99,1192.000000,,2013-04-08 20:52:00,
2013-04-08 11:02:00,67.0,50.0,-100.00,ENE,58,5.0,14.0,55,0.00,,,-99.99,1192.000000,,2013-04-08 21:02:00,
2013-04-08 11:12:00,67.0,50.0,-100.00,ENE,58,5.0,14.0,55,0.00,,,-99.99,1192.000000,,2013-04-08 21:12:00,
2013-04-08 11:22:00,67.0,50.0,-100.00,ENE,58,5.0,14.0,55,0.00,,,-99.99,1192.000000,,2013-04-08 21:22:00,
2013-04-08 11:32:00,67.0,50.0,-100.00,ENE,58,5.0,14.0,55,0.00,,,-99.99,1192.000000,,2013-04-08 21:32:00,
2013-04-08 12:02:00,70.0,51.0,-100.00,SSW,211,5.0,13.0,51,0.00,,,0.00,1343.000000,,2013-04-08 22:02:00,
2013-04-08 12:12:00,70.0,51.0,-100.00,SSW,211,5.0,13.0,51,0.00,,,0.00,1343.000000,,2013-04-08 22:12:00,
2013-04-08 12:22:00,70.0,51.0,-100.00,SSW,211,5.0,13.0,51,0.00,,,0.00,1343.000000,,2013-04-08 22:22:00,
2013-04-08 12:32:00,70.0,51.0,-100.00,SSW,211,5.0,13.0,51,0.00,,,0.00,1343.000000,,2013-04-08 22:32:00,
2013-04-08 13:02:00,72.0,52.0,-100.00,NE,53,5.0,13.0,49,0.00,,,0.00,1347.000000,,2013-04-08 23:02:00,
2013-04-08 13:12:00,72.0,52.0,-100.00,NE,53,5.0,13.0,49,0.00,,,0.00,1347.000000,,2013-04-08 23:12:00,
2013-04-08 13:22:00,72.0,52.0,-100.00,NE,53,5.0,13.0,49,0.00,,,0.00,1347.000000,,2013-04-08 23:22:00,
2013-04-08 13:32:00,72.0,52.0,-100.00,NE,53,5.0,13.0,49,0.00,,,0.00,1347.000000,,2013-04-08 23:32:00,
2013-04-08 14:02:00,66.0,52.0,-100.00,East,87,7.0,13.0,60,0.00,,,0.00,1128.000000,,2013-04-09 00:02:00,
2013-04-08 14:12:00,66.0,52.0,-100.00,East,87,7.0,13.0,60,0.00,,,0.00,1128.000000,,2013-04-09 00:12:00,
2013-04-08 14:22:00,66.0,52.0,-100.00,East,87,7.0,13.0,60,0.00,,,0.00,1128.000000,,2013-04-09 00:22:00,
2013-04-08 14:32:00,66.0,52.0,-100.00,East,87,7.0,13.0,60,0.00,,,0.00,1128.000000,,2013-04-09 00:32:00,
2013-04-08 15:02:00,64.0,51.0,-100.00,South,172,6.0,14.0,63,0.00,,,0.00,411.000000,,2013-04-09 01:02:00,
2013-04-08 15:12:00,64.0,51.0,-100.00,South,172,6.0,14.0,63,0.00,,,0.00,411.000000,,2013-04-09 01:12:00,
2013-04-08 15:22:00,64.0,51.0,-100.00,South,172,6.0,14.0,63,0.00,,,0.00,411.000000,,2013-04-09 01:22:00,
2013-04-08 15:32:00,64.0,51.0,-100.00,South,172,6.0,14.0,63,0.00,,,0.00,411.000000,,2013-04-09 01:32:00,
2013-04-08 16:02:00,60.0,53.0,-100.00,South,185,6.0,11.0,78,0.00,,,0.00,304.000000,,2013-04-09 02:02:00,
2013-04-08 16:12:00,60.0,53.0,-100.00,South,185,6.0,11.0,78,0.00,,,0.00,304.000000,,2013-04-09 02:12:00,
2013-04-08 16:22:00,60.0,53.0,-100.00,South,185,6.0,11.0,78,0.00,,,0.00,304.000000,,2013-04-09 02:22:00,
2013-04-08 16:32:00,60.0,53.0,-100.00,South,185,6.0,11.0,78,0.00,,,0.00,304.000000,,2013-04-09 02:32:00,
2013-04-08 17:02:00,57.0,53.0,-100.00,South,176,4.0,12.0,87,0.00,,,0.00,119.000000,,2013-04-09 03:02:00,
2013-04-08 17:12:00,57.0,53.0,-100.00,South,176,4.0,12.0,87,0.00,,,0.00,119.000000,,2013-04-09 03:12:00,
2013-04-08 17:21:00,57.0,53.0,-100.00,South,176,4.0,12.0,87,0.00,,,0.00,119.000000,,2013-04-09 03:21:00,
2013-04-08 17:32:00,57.0,53.0,-100.00,South,176,4.0,12.0,87,0.00,,,0.00,119.000000,,2013-04-09 03:32:00,
2013-04-08 18:02:00,57.0,55.0,-100.00,ENE,71,1.0,10.0,93,0.00,,,0.00,75.000000,,2013-04-09 04:02:00,
2013-04-08 18:13:00,57.0,55.0,-100.00,ENE,71,1.0,10.0,93,0.00,,,0.00,75.000000,,2013-04-09 04:13:00,
2013-04-08 18:22:00,57.0,55.0,-100.00,ENE,71,1.0,10.0,93,0.00,,,0.00,75.000000,,2013-04-09 04:22:00,
2013-04-08 18:32:00,57.0,55.0,-100.00,ENE,71,1.0,10.0,93,0.00,,,0.00,75.000000,,2013-04-09 04:32:00,
2013-04-08 19:02:00,55.0,54.0,-100.00,NE,38,3.0,6.0,96,0.00,,,0.00,49.000000,,2013-04-09 05:02:00,
2013-04-08 19:12:00,55.0,54.0,-100.00,NE,38,3.0,6.0,96,0.00,,,0.00,49.000000,,2013-04-09 05:12:00,
2013-04-08 19:22:00,55.0,54.0,-100.00,NE,38,3.0,6.0,96,0.00,,,0.00,49.000000,,2013-04-09 05:22:00,
2013-04-08 19:32:00,55.0,54.0,-100.00,NE,38,3.0,6.0,96,0.00,,,0.00,49.000000,,2013-04-09 05:32:00,
2013-04-08 20:02:00,50.0,50.0,-100.00,NNE,16,2.0,5.0,100,0.00,,,0.00,1.000000,,2013-04-09 06:02:00,
2013-04-08 20:12:00,50.0,50.0,-100.00,NNE,16,2.0,5.0,100,0.00,,,0.00,1.000000,,2013-04-09 06:12:00,
2013-04-08 20:22:00,50.0,50.0,-100.00,NNE,16,2.0,5.0,100,0.00,,,0.00,1.000000,,2013-04-09 06:22:00,
2013-04-08 20:32:00,50.0,50.0,-100.00,NNE,16,2.0,5.0,100,0.00,,,0.00,1.000000,,2013-04-09 06:32:00,
2013-04-08 20:52:00,47.0,47.0,-100.00,NW,316,3.0,6.0,99,0.00,,,0.00,0.000000,,2013-04-09 06:52:00,
2013-04-08 21:02:00,47.0,47.0,-100.00,NW,316,3.0,6.0,99,0.00,,,0.00,0.000000,,2013-04-09 07:02:00,
2013-04-08 21:12:00,47.0,47.0,-100.00,NW,316,3.0,6.0,99,0.00,,,0.00,0.000000,,2013-04-09 07:12:00,
2013-04-08 21:22:00,47.0,47.0,-100.00,NW,316,3.0,6.0,99,0.00,,,0.00,0.000000,,2013-04-09 07:22:00,
2013-04-08 21:32:00,47.0,47.0,-100.00,NW,316,3.0,6.0,99,0.00,,,0.00,0.000000,,2013-04-09 07:32:00,
2013-04-08 22:02:00,50.0,50.0,-100.00,NNW,333,1.0,5.0,100,0.00,,,0.00,0.000000,,2013-04-09 08:02:00,
2013-04-08 22:12:00,50.0,50.0,-100.00,NNW,333,1.0,5.0,100,0.00,,,0.00,0.000000,,2013-04-09 08:12:00,
2013-04-08 22:22:00,50.0,50.0,-100.00,NNW,333,1.0,5.0,100,0.00,,,0.00,0.000000,,2013-04-09 08:22:00,
2013-04-08 22:32:00,50.0,50.0,-100.00,NNW,333,1.0,5.0,100,0.00,,,0.00,0.000000,,2013-04-09 08:32:00,
2013-04-08 23:02:00,50.0,50.0,-100.00,NNE,15,1.0,2.0,100,0.00,,,0.00,0.000000,,2013-04-09 09:02:00,
2013-04-08 23:12:00,50.0,50.0,-100.00,NNE,15,1.0,2.0,100,0.00,,,0.00,0.000000,,2013-04-09 09:12:00,
2013-04-08 23:22:00,50.0,50.0,-100.00,NNE,15,1.0,2.0,100,0.00,,,0.00,0.000000,,2013-04-09 09:22:00,
2013-04-08 23:32:00,50.0,50.0,-100.00,NNE,15,1.0,2.0,100,0.00,,,0.00,0.000000,,2013-04-09 09:32:00,